Location: Bazugues
(43.4465°N, 0.3432°E)
Time: 05:27:17
(UTC+00:00)

Nadezhda 3 Rocket - Visible Passes

Search period start: 19 April 2026 00:00
Search period end: 29 April 2026 00:00
Orbit: 955 x 999 km, 82.9° (Epoch: 18 April)

Date Brightness Start Highest point End Pass type
(mag) Time Alt. Az. Time Alt. Az. Time Alt. Az.
19 Apr 5.8 19:55:38 10° NNW 20:00:56 31° W 20:06:13 10° SSW visible
20 Apr 6.6 20:22:29 10° NW 20:26:19 17° W 20:30:07 10° WSW visible
22 Apr 5.7 19:27:27 10° NNW 19:32:57 36° W 19:38:28 10° SSW visible
23 Apr 6.6 19:54:06 10° NW 19:58:22 20° W 20:02:38 10° SW visible
24 Apr 7.3 20:23:02 10° WNW 20:23:35 10° WNW 20:24:09 10° W visible
26 Apr 6.6 19:25:47 10° NW 19:30:25 23° W 19:35:04 10° SW visible
27 Apr 7.1 19:53:28 10° NW 19:55:42 12° WNW 19:57:55 10° W visible
